Weather History for Edwards AFB, CA

Change the Weather History Date:

Sunday, January 12, 2014

  Actual Average Record
Temperature  
Mean Temperature 47 °F -  
Max Temperature 59 °F 58 °F 69 °F (1999)
Min Temperature 34 °F 30 °F 15 °F (2013)
Degree Days  
Heating Degree Days 18    
Moisture  
Dew Point 33 °F    
Average Humidity 56    
Maximum Humidity 67    
Minimum Humidity 36    
Precipitation  
Precipitation 0.00 in - - ()
Sea Level Pressure  
Sea Level Pressure 30.17 in    
Wind  
Wind Speed 17 mph (West)    
Max Wind Speed 30 mph    
Max Gust Speed 41 mph    
Visibility 10 miles    
Events      
Averages and records for this station are not official NWS values.
T = Trace of Precipitation, MM = Missing Value Source: NWS Daily Summary

Daily Weather History Graph

Daily Weather History Graph

Search for Another Location

Airport:

Trip Planner

Search our weather history database for the weather conditions in past years. The results will help you decide how hot, cold, wet, or windy it might be!

Date:

Astronomy

Jan. 12, 2014 Rise Set
Actual Time 6:59 AM PST 5:00 PM PST
Civil Twilight 6:31 AM PST 5:28 PM PST
Nautical Twilight 6:00 AM PST 5:59 PM PST
Astronomical Twilight 5:30 AM PST 6:29 PM PST
Moon 2:31 PM PST (1/12) 4:03 AM PST (1/12)
Length of Visible Light 10h 56m
Length of Day
10h 01m
Waxing Gibbous, 90% of the Moon is Illuminated
Jan 12
Waxing Gibbous
Jan 15
Full
Jan 23
Last Quarter
Jan 30
New
Feb 6
First Quarter

Hourly Weather History & Observations

Time (PST) Temp. Windchill Dew Point Humidity Pressure Visibility Wind Dir Wind Speed Gust Speed Precip Events Conditions
12:58 AM 52.7 °F - 36.3 °F 54% 30.04 in 10.0 mi West 29.9 mph 41.4 mph N/A   Clear
1:58 AM 53.1 °F - 36.3 °F 53% 30.05 in 10.0 mi WSW 27.6 mph 38.0 mph N/A   Clear
2:58 AM 52.0 °F - 37.4 °F 58% 30.06 in 10.0 mi WSW 21.9 mph 31.1 mph N/A   Clear
3:58 AM 50.9 °F - 38.1 °F 62% 30.05 in 10.0 mi West 20.7 mph 31.1 mph N/A   Clear
4:58 AM 50.7 °F - 38.3 °F 62% 30.04 in 10.0 mi West 26.5 mph 32.2 mph N/A   Clear
5:39 AM 50.0 °F - 37.4 °F 62% 30.09 in 10.0 mi West 19.6 mph 24.2 mph N/A   Clear
5:58 AM 49.8 °F - 38.1 °F 64% 30.06 in 10.0 mi West 24.2 mph 34.5 mph N/A   Clear
6:58 AM 48.6 °F - 37.8 °F 66% 30.09 in 10.0 mi West 15.0 mph 25.3 mph N/A   Clear
7:58 AM 48.9 °F - 37.4 °F 64% 30.12 in 10.0 mi SW 11.5 mph - N/A   Clear
8:07 AM 48.2 °F - 35.6 °F 62% 30.13 in 10.0 mi South 11.5 mph - N/A   Clear
8:58 AM 49.1 °F - 36.5 °F 62% 30.13 in 90.0 mi WSW 16.1 mph - N/A   Scattered Clouds
9:58 AM 53.2 °F - 34.3 °F 49% 30.18 in 90.0 mi NNW 6.9 mph - N/A   Mostly Cloudy
10:58 AM 52.9 °F - 36.0 °F 53% 30.19 in 90.0 mi North 9.2 mph - N/A   Mostly Cloudy
11:58 AM 54.1 °F - 36.0 °F 50% 30.18 in 90.0 mi NNE 9.2 mph - N/A   Mostly Cloudy
12:58 PM 56.7 °F - 34.3 °F 43% 30.17 in 80.0 mi ENE 2.3 mph - N/A   Mostly Cloudy
1:58 PM 58.5 °F - 32.9 °F 38% 30.15 in 80.0 mi ESE 4.6 mph - N/A   Mostly Cloudy
2:58 PM 59.2 °F - 31.8 °F 36% 30.16 in 80.0 mi SSE 3.5 mph - N/A   Mostly Cloudy
3:58 PM 57.9 °F - 32.4 °F 38% 30.18 in 80.0 mi SSW 3.5 mph - N/A   Mostly Cloudy
4:58 PM 54.1 °F - 32.9 °F 45% 30.19 in 10.0 mi SW 3.5 mph - N/A   Clear
5:58 PM 46.4 °F 45.2 °F 30.9 °F 55% 30.24 in 10.0 mi South 3.5 mph - N/A   Clear
6:58 PM 43.0 °F 40.3 °F 30.0 °F 60% 30.26 in 10.0 mi SE 4.6 mph - N/A   Clear
7:58 PM 40.1 °F 38.0 °F 29.3 °F 65% 30.29 in 10.0 mi Variable 3.5 mph - N/A   Clear
8:58 PM 37.8 °F - 27.5 °F 67% 30.32 in 10.0 mi ESE 2.3 mph - N/A   Clear
9:58 PM 36.7 °F - 25.7 °F 64% 30.32 in 10.0 mi NNW 1.2 mph - N/A   Clear
10:58 PM 35.2 °F - 24.6 °F 65% 30.35 in 10.0 mi North 2.3 mph - N/A   Clear
11:58 PM 34.7 °F 27.5 °F 23.0 °F 62% 30.37 in 10.0 mi North 9.2 mph - N/A   Clear